Location: Prescott
(34.5400°N, 112.4680°W)
Time: 11:12:36
(UTC-07:00)

Amateur Radio Satellites - All Passes

Search period start: 20 January 2017 10:42
Search period end: 21 January 2017 10:42
Location: Prescott, 34.5400°N, 112.4680°W

Satellite Date Start Highest point End Downlink Frequencies (MHz)
Time Altitude Azimuth
DELFI C3 20 Jan 10:46:14 10:49:50 33° 287° (WNW) 10:53:25 145.870
ANTELSAT 20 Jan 10:46:32 10:50:00 24° 264° (W) 10:53:27 437.575/2403.000
DUCHIFAT 1 20 Jan 10:48:59 10:52:13 22° 70° (ENE) 10:55:29 145.980
PCSat 20 Jan 10:49:51 10:55:18 78° 246° (WSW) 11:00:41 145.827
NANOSAT C BR1 20 Jan 10:54:05 10:57:40 28° 72° (ENE) 11:01:15 145.865
BUGSAT 1 20 Jan 11:24:19 11:27:14 19° 70° (ENE) 11:30:08 437.445
ESTCUBE 1 20 Jan 11:28:40 11:32:52 37° 98° (E) 11:37:02 437.505/2401.250
VELOX 1 20 Jan 11:41:23 11:44:12 17° 94° (E) 11:46:59 145.980
QB50P1 20 Jan 11:45:44 11:49:51 58° 259° (W) 11:54:00 145.935-145.965
POLYITAN 1 20 Jan 11:49:56 11:54:00 50° 260° (W) 11:58:05 437.675
QB50P2 20 Jan 11:51:14 11:55:16 45° 261° (W) 11:59:18 145.880/145.840
BY70-1 20 Jan 12:04:50 12:07:27 22° 289° (WNW) 12:09:56 436.1900
JAS-2 20 Jan 12:05:26 12:09:06 19° 268° (W) 12:12:58 435.910
SPROUT 20 Jan 12:09:51 12:13:26 26° 97° (E) 12:17:00 437.525
POPSAT HIP 1 20 Jan 12:13:18 12:16:53 27° 263° (W) 12:20:28 437.405
DX 1 20 Jan 12:13:36 12:16:31 18° 95° (E) 12:19:24 434.975-435.025
UKube-1 20 Jan 12:13:56 12:15:35 12° 93° (E) 12:17:15 .
RS-15 20 Jan 12:19:27 12:23:04 12° 265° (W) 12:26:40 29.354- 29.394
Oscar 19 20 Jan 12:20:13 12:24:24 25° 68° (ENE) 12:28:37 437.125/150
DUCHIFAT 1 20 Jan 12:24:24 12:27:46 23° 264° (W) 12:31:08 145.980
CUBEBUG 1 20 Jan 12:26:43 12:31:03 79° 282° (WNW) 12:35:20 437.445
NANOSAT C BR1 20 Jan 12:30:25 12:33:21 18° 265° (W) 12:36:18 145.865
Gurwin Techsat 1B 20 Jan 12:34:49 12:38:24 19° 66° (ENE) 12:41:58 435.225
AISAT 20 Jan 12:43:00 12:47:23 83° 284° (WNW) 12:51:45 437.250
50 SAT 20 Jan 12:51:26 12:54:59 80° 283° (WNW) 12:58:30 437.505
BUGSAT 1 20 Jan 12:58:58 13:02:24 26° 263° (W) 13:05:49 437.445
Cosmos 2491 20 Jan 13:03:34 13:11:50 43° 77° (ENE) 13:20:03 435.465 / 435.565
AO-7 20 Jan 13:05:04 13:07:21 11° 50° (NE) 13:09:37 29.400- 29.500
ESTCUBE 1 20 Jan 13:06:22 13:09:20 17° 293° (WNW) 13:12:18 437.505/2401.250
YUBILEINY 20 Jan 13:08:02 13:13:50 20° 81° (E) 13:19:38 435.215
VELOX 1 20 Jan 13:16:44 13:20:43 35° 288° (WNW) 13:24:41 145.980
CUSAT 1 20 Jan 13:20:46 13:26:47 23° 68° (ENE) 13:32:25 437.405
JUGNU 20 Jan 13:35:42 13:38:13 13° 167° (SSE) 13:40:45 437.505
TISAT 1 20 Jan 13:37:34 13:41:23 34° 98° (E) 13:45:12 437.305
SPROUT 20 Jan 13:45:57 13:49:10 21° 290° (WNW) 13:52:23 437.525
UKube-1 20 Jan 13:47:42 13:51:49 46° 287° (WNW) 13:55:55 .
DX 1 20 Jan 13:48:52 13:52:44 32° 289° (WNW) 13:56:34 434.975-435.025
Oscar 19 20 Jan 13:58:53 14:03:31 33° 263° (W) 14:08:11 437.125/150
AO-85 20 Jan 14:04:50 14:09:42 83° 301° (WNW) 14:14:11 145.980
AIST 1 20 Jan 14:05:53 14:10:13 65° 94° (E) 14:14:32
DANDE 20 Jan 14:10:09 14:15:58 21° 70° (ENE) 14:21:56 436.750
Gurwin Techsat 1B 20 Jan 14:12:49 14:17:55 48° 260° (W) 14:23:03 435.225
Cosmos 2504 20 Jan 14:18:50 14:26:20 33° 87° (E) 14:33:30 435.465 / 435.565
BEESAT 20 Jan 14:18:57 14:22:21 19° 95° (E) 14:25:44 436.000
SWISSCUBE 20 Jan 14:20:18 14:24:04 22° 96° (E) 14:27:47 437.505
ITAMSAT 1 20 Jan 14:41:17 14:46:21 61° 74° (ENE) 14:51:27 435.822/435.867
AO-7 20 Jan 14:50:14 14:58:25 62° 68° (ENE) 15:06:38 29.400- 29.500
Cosmos 2491 20 Jan 15:00:41 15:08:24 36° 274° (W) 15:16:08 435.465 / 435.565
YUBILEINY 20 Jan 15:00:50 15:09:36 73° 278° (W) 15:18:28 435.215
CUSAT 1 20 Jan 15:01:27 15:09:22 68° 266° (W) 15:16:26 437.405
TISAT 1 20 Jan 15:14:12 15:16:42 16° 292° (WNW) 15:19:13 437.305
BEESAT 3 20 Jan 15:18:34 15:20:22 13° 108° (ESE) 15:22:12 437.485
ITUPSAT 1 20 Jan 15:20:51 15:25:42 89° 273° (W) 15:30:30 437.325
JUGNU 20 Jan 15:22:32 15:26:30 19° 177° (S) 15:30:28 437.505
MOZHAYETS 4 20 Jan 15:49:55 15:54:30 56° 100° (E) 15:59:03
DANDE 20 Jan 15:51:13 15:59:13 78° 265° (W) 16:07:31 436.750
BRITE-PL 20 Jan 15:53:43 15:58:27 28° 69° (ENE) 16:03:09 437.365/2234.400
BEESAT 20 Jan 15:55:48 16:00:10 36° 289° (WNW) 16:04:32 436.000
SWISSCUBE 20 Jan 15:57:35 16:01:49 31° 290° (WNW) 16:06:00 437.505
GOMX 1 20 Jan 16:00:19 16:02:10 12° 65° (ENE) 16:03:58 467.674
BEESAT 2 20 Jan 16:02:40 16:05:19 18° 110° (ESE) 16:08:01 435.950
O/OREOS (USA 219) 20 Jan 16:06:50 16:10:46 29° 64° (ENE) 16:14:42 437.305
Cosmos 2504 20 Jan 16:11:08 16:19:23 46° 281° (WNW) 16:27:17 435.465 / 435.565
AUBIESAT-1 20 Jan 16:15:32 16:18:05 21° 101° (E) 16:20:38 437.475
ITAMSAT 1 20 Jan 16:23:53 16:26:09 13° 268° (W) 16:28:26 435.822/435.867
KKS-1 20 Jan 16:28:48 16:33:01 43° 99° (E) 16:37:13 437.445
HORYU 2 20 Jan 16:33:33 16:37:11 26° 70° (ENE) 16:40:49 437.375
CUBESAT XI-V 20 Jan 16:36:35 16:40:26 25° 96° (E) 16:44:13 437.345
Cubesat XI-IV 20 Jan 16:39:20 16:41:10 12° 62° (ENE) 16:43:02 437.490
AO-7 20 Jan 16:45:02 16:51:33 25° 264° (W) 16:58:07 29.400- 29.500
NOAA 15 20 Jan 16:46:26 16:49:25 15° 64° (ENE) 16:52:24 137.62
SRMSAT 20 Jan 16:52:29 16:56:06 16° 171° (S) 16:59:43 437.500
BEESAT 3 20 Jan 16:53:57 16:57:35 38° 303° (WNW) 17:01:17 437.485
SO-50 20 Jan 16:56:39 17:00:55 41° 56° (NE) 17:05:08 436.795
YUBILEINY 20 Jan 17:05:17 17:07:58 12° 297° (WNW) 17:10:40 435.215
JUGNU 20 Jan 17:11:04 17:14:49 17° 187° (S) 17:18:34 437.505
M-CUBED/EXP-1 PRIME 20 Jan 17:12:58 17:16:01 35° 291° (WNW) 17:19:01 437.505
LilacSat-2 20 Jan 17:13:57 17:16:48 21° 71° (ENE) 17:19:39 437.200
STARS 20 Jan 17:21:22 17:25:45 78° 103° (ESE) 17:30:07 437.465
MOZHAYETS 4 20 Jan 17:29:10 17:31:07 13° 295° (WNW) 17:33:04
BRITE-PL 20 Jan 17:31:30 17:36:39 36° 263° (W) 17:41:51 437.365/2234.400
CUTE-I 20 Jan 17:32:23 17:37:20 41° 71° (ENE) 17:42:17 437.470
GOMX 1 20 Jan 17:34:08 17:39:35 79° 258° (WSW) 17:44:51 467.674
DANDE 20 Jan 17:37:20 17:40:52 13° 278° (W) 17:44:28 436.750
BEESAT 2 20 Jan 17:39:22 17:42:51 30° 305° (NW) 17:46:23 435.950
O/OREOS (USA 219) 20 Jan 17:46:34 17:49:57 21° 259° (WSW) 17:53:21 437.305
AUBIESAT-1 20 Jan 17:50:22 17:52:22 15° 295° (WNW) 17:54:20 437.475
CINEMA 3 20 Jan 18:04:40 18:07:27 17° 69° (ENE) 18:10:12 145.822/145.860
KKS-1 20 Jan 18:06:45 18:09:11 15° 294° (WNW) 18:11:36 437.445
HO-68 20 Jan 18:07:25 18:12:49 24° 62° (ENE) 18:18:14 435.675
HORYU 2 20 Jan 18:10:08 18:13:38 23° 264° (W) 18:17:09 437.375
DOVE 4 20 Jan 18:12:31 18:17:35 79° 258° (WSW) 18:22:25 437.250
CUBESAT XI-V 20 Jan 18:13:48 18:17:42 27° 290° (WNW) 18:21:35 437.345
CANX-2 20 Jan 18:14:31 18:16:25 13° 67° (ENE) 18:18:20 2200.000
Cubesat XI-IV 20 Jan 18:15:14 18:20:31 77° 256° (WSW) 18:25:52 437.490
NOAA 18 20 Jan 18:21:20 18:26:47 68° 74° (ENE) 18:32:15 137.9125
NOAA 15 20 Jan 18:23:27 18:28:38 59° 258° (WSW) 18:33:53 137.62
Cosmos 2499 20 Jan 18:33:18 18:38:53 20° 83° (E) 18:44:13 435.465 / 435.565
SO-50 20 Jan 18:38:15 18:41:00 16° 251° (WSW) 18:43:44 436.795
SRMSAT 20 Jan 18:40:26 18:44:35 19° 181° (S) 18:48:44 437.500
LilacSat-2 20 Jan 18:48:08 18:50:57 20° 265° (W) 18:53:48 437.200
CUBEBUG 2 20 Jan 18:58:19 19:00:23 14° 68° (ENE) 19:02:26 437.445
JUGNU 20 Jan 19:02:46 19:03:05 10° 196° (SSW) 19:03:24 437.505
CUTE-I 20 Jan 19:13:36 19:17:28 20° 265° (W) 19:21:22 437.470
CUTE 1.7 + AOD 2 20 Jan 19:18:18 19:22:28 64° 76° (ENE) 19:26:42 437.475
UWE-3 20 Jan 19:25:22 19:28:05 17° 69° (ENE) 19:30:48 435.000/436.395/437.385
AIST 2 20 Jan 19:38:53 19:42:58 89° 132° (SE) 19:47:09 435.215
CINEMA 3 20 Jan 19:40:12 19:44:19 35° 262° (W) 19:48:19 145.822/145.860
ZACube-1 20 Jan 19:43:33 19:46:07 16° 68° (ENE) 19:48:42 437.345
CANX-2 20 Jan 19:47:46 19:51:49 45° 261° (W) 19:55:55 2200.000
GONETS M04 20 Jan 19:48:22 19:56:44 56° 90° (E) 20:05:11
HO-68 20 Jan 19:52:54 19:59:58 60° 258° (WSW) 20:07:05 435.675
SEEDS 20 Jan 19:58:00 20:02:10 63° 260° (W) 20:06:22 437.485
COMPASS 1 20 Jan 20:02:43 20:06:54 88° 259° (WSW) 20:11:07 437.405
STRAND 1 20 Jan 20:05:03 20:10:12 75° 284° (WNW) 20:15:19 437.568
NOAA 18 20 Jan 20:05:28 20:07:50 13° 268° (W) 20:10:12 137.9125
AAUSAT CUBESAT 2 20 Jan 20:13:40 20:17:50 86° 257° (WSW) 20:22:03 437.432
Oscar 11 20 Jan 20:17:44 20:21:40 36° 73° (ENE) 20:25:37 145.826/435.025
Cosmos 2499 20 Jan 20:22:45 20:31:16 71° 278° (W) 20:39:13 435.465 / 435.565
SRMSAT 20 Jan 20:29:50 20:33:03 15° 191° (SSW) 20:36:17 437.500
CUBEBUG 2 20 Jan 20:32:43 20:36:39 39° 261° (W) 20:40:33 437.445
FUNcube-1 20 Jan 20:54:36 20:58:42 72° 259° (W) 21:02:50 145.935
UWE-3 20 Jan 21:00:39 21:04:18 30° 263° (W) 21:07:58 435.000/436.395/437.385
ISS 20 Jan 21:13:31 21:16:13 24° 130° (SE) 21:18:56 145.825
ZACube-1 20 Jan 21:18:25 21:22:07 32° 263° (W) 21:25:51 437.345
HUMSAT D 20 Jan 21:25:34 21:29:19 36° 73° (ENE) 21:33:07 437.325/437.525
DELFI C3 20 Jan 21:27:26 21:31:26 79° 76° (ENE) 21:35:28 145.870
PRISM 20 Jan 21:40:46 21:44:50 59° 101° (E) 21:48:51 437.425
GONETS M04 20 Jan 21:46:49 21:53:54 28° 288° (WNW) 22:01:06
Oscar 11 20 Jan 21:55:17 21:57:52 16° 266° (W) 22:00:28 145.826/435.025
RS-15 20 Jan 22:09:15 22:18:16 27° 101° (ESE) 22:27:32 29.354- 29.394
UNISAT 6 20 Jan 22:11:49 22:16:01 39° 99° (E) 22:20:17 437.425
BY70-1 20 Jan 22:15:29 22:17:59 25° 72° (ENE) 22:20:39 436.1900
Cosmos 2499 20 Jan 22:24:47 22:25:35 10° 295° (WNW) 22:26:23 435.465 / 435.565
TIGRISAT 20 Jan 22:24:53 22:29:15 52° 100° (E) 22:33:41 435.000
ESTCUBE 1 20 Jan 22:25:06 22:28:38 23° 69° (ENE) 22:32:12 437.505/2401.250
VELOX 1 20 Jan 22:37:34 22:38:15 10° 64° (ENE) 22:38:56 145.980
ANTELSAT 20 Jan 22:40:09 22:44:39 86° 103° (ESE) 22:49:13 437.575/2403.000
AO-85 20 Jan 22:40:11 22:43:31 26° 55° (NE) 22:46:50 145.980
ISS 20 Jan 22:49:50 22:52:38 25° 325° (NW) 22:55:25 145.825
SPROUT 20 Jan 23:01:16 23:03:20 13° 67° (ENE) 23:05:25 437.525
HUMSAT D 20 Jan 23:02:56 23:05:03 14° 267° (W) 23:07:10 437.325/437.525
DX 1 20 Jan 23:07:55 23:08:47 11° 64° (ENE) 23:09:40 434.975-435.025
JAS-2 20 Jan 23:14:09 23:21:26 62° 101° (E) 23:29:10 435.910
CUBEBUG 1 20 Jan 23:18:44 23:23:02 53° 74° (ENE) 23:27:19 437.445
50 SAT 20 Jan 23:23:05 23:25:51 21° 71° (ENE) 23:28:38 437.505
QB50P1 20 Jan 23:34:05 23:37:43 28° 97° (E) 23:41:20 145.935-145.965
AISAT 20 Jan 23:36:25 23:40:46 54° 74° (ENE) 23:45:06 437.250
POLYITAN 1 20 Jan 23:38:17 23:42:04 31° 98° (E) 23:45:51 437.675
QB50P2 20 Jan 23:39:28 23:43:22 35° 98° (E) 23:47:14 145.880/145.840
PCSat 20 Jan 23:45:58 23:50:06 23° 106° (ESE) 23:54:14 145.827
UNISAT 6 20 Jan 23:49:37 23:52:23 16° 292° (WNW) 23:55:11 437.425
POPSAT HIP 1 21 Jan 00:00:37 00:04:47 58° 101° (E) 00:08:57 437.405
ESTCUBE 1 21 Jan 00:01:25 00:05:16 27° 263° (W) 00:09:09 437.505/2401.250
TIGRISAT 21 Jan 00:03:35 00:05:28 13° 294° (WNW) 00:07:23 435.000
VELOX 1 21 Jan 00:09:43 00:14:07 63° 259° (W) 00:18:32 145.980
DUCHIFAT 1 21 Jan 00:10:45 00:14:56 67° 101° (E) 00:19:07 145.980
NANOSAT C BR1 21 Jan 00:16:34 00:20:47 88° 103° (ESE) 00:25:00 145.865
RS-15 21 Jan 00:17:39 00:29:25 76° 301° (WNW) 00:41:48 29.354- 29.394
AIST 1 21 Jan 00:19:05 00:20:14 11° 72° (ENE) 00:21:23
AO-85 21 Jan 00:20:54 00:23:42 19° 249° (WSW) 00:26:32 145.980
PHONESAT 2.4 21 Jan 00:24:44 00:25:43 12° 145° (SE) 00:26:41 2401.200-2431.200
TISAT 1 21 Jan 00:26:37 00:29:20 17° 68° (ENE) 00:32:03 437.305
SPROUT 21 Jan 00:34:48 00:38:51 43° 261° (W) 00:42:55 437.525
Oscar 19 21 Jan 00:37:38 00:38:46 11° 91° (E) 00:39:55 437.125/150
UKube-1 21 Jan 00:38:03 00:42:22 90° 119° (ESE) 00:46:44 .
DX 1 21 Jan 00:40:05 00:44:24 60° 259° (W) 00:48:44 434.975-435.025
BUGSAT 1 21 Jan 00:43:15 00:47:12 52° 101° (E) 00:51:10 437.445
50 SAT 21 Jan 00:56:33 00:58:58 17° 265° (W) 01:01:24 437.505
CUBEBUG 1 21 Jan 00:58:24 00:59:33 11° 268° (W) 01:00:43 437.445
JAS-2 21 Jan 01:00:16 01:05:56 25° 295° (WNW) 01:11:54 435.910
QB50P1 21 Jan 01:10:12 01:13:16 20° 291° (WNW) 01:16:20 145.935-145.965
BEESAT 3 21 Jan 01:13:51 01:17:33 35° 56° (ENE) 01:21:13 437.485
POLYITAN 1 21 Jan 01:14:44 01:17:35 18° 291° (WNW) 01:20:26 437.675
YUBILEINY 21 Jan 01:15:41 01:24:09 48° 78° (ENE) 01:32:29 435.215
QB50P2 21 Jan 01:16:14 01:18:50 16° 292° (WNW) 01:21:25 145.880/145.840
AISAT 21 Jan 01:16:23 01:17:29 11° 268° (W) 01:18:35 437.250
BEESAT 21 Jan 01:22:44 01:25:30 16° 66° (ENE) 01:28:17 436.000
SWISSCUBE 21 Jan 01:23:57 01:27:09 18° 67° (ENE) 01:30:21 437.505
PCSat 21 Jan 01:28:06 01:33:10 41° 301° (WNW) 01:38:17 145.827
AIST 1 21 Jan 01:53:59 01:58:05 46° 267° (W) 02:02:08
PHONESAT 2.4 21 Jan 01:57:14 01:59:28 61° 338° (NNW) 02:01:43 2401.200-2431.200
BEESAT 2 21 Jan 01:59:45 02:03:41 48° 58° (ENE) 02:07:34 435.950
Cosmos 2491 21 Jan 01:59:58 02:08:21 55° 90° (E) 02:16:46 435.465 / 435.565
TISAT 1 21 Jan 02:00:57 02:04:41 32° 262° (W) 02:08:26 437.305
Cosmos 2504 21 Jan 02:08:12 02:15:20 52° 79° (E) 02:22:15 435.465 / 435.565
Oscar 19 21 Jan 02:13:23 02:18:32 71° 285° (WNW) 02:23:38 437.125/150
CUSAT 1 21 Jan 02:19:06 02:22:15 16° 80° (E) 02:25:51 437.405
BUGSAT 1 21 Jan 02:21:48 02:22:04 10° 294° (WNW) 02:22:21 437.445
ITUPSAT 1 21 Jan 02:23:52 02:28:35 71° 75° (ENE) 02:33:20 437.325
M-CUBED/EXP-1 PRIME 21 Jan 02:23:56 02:24:46 10° 62° (ENE) 02:25:35 437.505
Gurwin Techsat 1B 21 Jan 02:32:19 02:37:40 90° 20° (NNE) 02:42:59 435.225
RS-15 21 Jan 02:35:21 02:44:26 24° 327° (NNW) 02:53:46 29.354- 29.394
MOZHAYETS 4 21 Jan 02:48:21 02:52:28 35° 72° (ENE) 02:56:38
BEESAT 3 21 Jan 02:52:27 02:54:50 15° 251° (WSW) 02:57:12 437.485
AO-7 21 Jan 02:57:01 03:03:28 24° 96° (E) 03:09:50 29.400- 29.500
AUBIESAT-1 21 Jan 02:57:32 03:00:42 21° 66° (ENE) 03:03:44 437.475
ITAMSAT 1 21 Jan 02:58:04 03:02:32 28° 97° (E) 03:07:00 435.822/435.867
BEESAT 21 Jan 02:58:18 03:02:51 47° 260° (W) 03:07:26 436.000
SWISSCUBE 21 Jan 03:00:09 03:04:35 39° 261° (W) 03:09:04 437.505
YUBILEINY 21 Jan 03:13:06 03:20:31 32° 275° (W) 03:27:53 435.215
KKS-1 21 Jan 03:23:40 03:27:21 26° 70° (ENE) 03:31:03 437.445
PHONESAT 2.4 21 Jan 03:32:01 03:33:43 18° 354° (N) 03:35:26 2401.200-2431.200
CUBESAT XI-V 21 Jan 03:37:07 03:40:09 17° 67° (ENE) 03:43:12 437.345
BEESAT 2 21 Jan 03:39:43 03:40:59 11° 252° (WSW) 03:42:15 435.950
ISS 21 Jan 03:45:37 03:46:05 10° 25° (NNE) 03:46:34 145.825
M-CUBED/EXP-1 PRIME 21 Jan 03:54:22 03:58:47 64° 254° (WSW) 04:02:56 437.505
Cosmos 2491 21 Jan 03:58:25 04:05:31 28° 288° (WNW) 04:12:41 435.465 / 435.565
CUSAT 1 21 Jan 03:58:28 04:03:12 50° 284° (WNW) 04:09:25 437.405
Cosmos 2504 21 Jan 04:02:49 04:08:05 22° 276° (W) 04:13:16 435.465 / 435.565
AIST 2 21 Jan 04:04:01 04:07:16 21° 52° (NE) 04:10:31 435.215
STARS 21 Jan 04:14:22 04:18:29 42° 73° (ENE) 04:22:38 437.465
MOZHAYETS 4 21 Jan 04:26:33 04:29:41 18° 266° (W) 04:32:50
AUBIESAT-1 21 Jan 04:31:07 04:34:54 29° 257° (WSW) 04:38:31 437.475
ITAMSAT 1 21 Jan 04:37:27 04:41:54 29° 291° (WNW) 04:46:20 435.822/435.867
AO-7 21 Jan 04:48:24 04:56:38 64° 291° (WNW) 05:04:48 29.400- 29.500
DANDE 21 Jan 04:57:15 05:00:43 41° 285° (WNW) 05:05:17 436.750
RS-15 21 Jan 04:58:46 05:03:58 13° 4° (N) 05:09:11 29.354- 29.394
KKS-1 21 Jan 05:00:16 05:03:49 23° 264° (W) 05:07:22 437.445
PHONESAT 2.4 21 Jan 05:06:17 05:08:08 21° 11° (N) 05:10:00 2401.200-2431.200
CUBESAT XI-V 21 Jan 05:12:45 05:17:09 41° 262° (W) 05:21:37 437.345
ISS 21 Jan 05:19:50 05:23:04 70° 42° (NE) 05:26:18 145.825
BRITE-PL 21 Jan 05:40:22 05:45:10 72° 283° (WNW) 05:49:33 437.365/2234.400
GOMX 1 21 Jan 05:40:32 05:44:33 37° 98° (E) 05:48:25 467.674
AIST 2 21 Jan 05:41:59 05:45:46 31° 247° (WSW) 05:49:30 435.215
STRAND 1 21 Jan 05:42:31 05:43:54 11° 63° (ENE) 05:45:17 437.568
STARS 21 Jan 05:52:48 05:54:59 14° 266° (W) 05:57:11 437.465
CUTE-I 21 Jan 05:53:30 05:57:34 22° 95° (E) 06:01:37 437.470
HORYU 2 21 Jan 06:03:12 06:07:41 85° 106° (ESE) 06:12:09 437.375
GONETS M04 21 Jan 06:03:57 06:10:33 23° 70° (ENE) 06:17:06
O/OREOS (USA 219) 21 Jan 06:15:03 06:19:29 67° 107° (ESE) 06:23:56 437.305
DOVE 4 21 Jan 06:15:29 06:19:14 32° 97° (E) 06:22:58 437.250
Cosmos 2499 21 Jan 06:19:14 06:25:20 30° 75° (ENE) 06:31:24 435.465 / 435.565
LilacSat-2 21 Jan 06:23:37 06:27:24 51° 100° (E) 06:31:11 437.200
Cubesat XI-IV 21 Jan 06:36:01 06:41:17 58° 101° (E) 06:46:32 437.490
PHONESAT 2.4 21 Jan 06:40:01 06:42:16 67° 204° (SSW) 06:44:30 2401.200-2431.200
NOAA 15 21 Jan 06:42:03 06:47:22 71° 102° (ESE) 06:52:38 137.62
AO-7 21 Jan 06:45:11 06:47:44 12° 310° (NW) 06:50:17 29.400- 29.500
NOAA 18 21 Jan 06:47:13 06:52:16 38° 99° (E) 06:57:17 137.9125
SO-50 21 Jan 07:07:26 07:11:36 31° 113° (ESE) 07:15:45 436.795
CUTE 1.7 + AOD 2 21 Jan 07:08:06 07:10:29 15° 93° (E) 07:12:53 437.475
RS-15 21 Jan 07:12:38 07:22:52 29° 39° (NE) 07:32:47 29.354- 29.394
STRAND 1 21 Jan 07:17:18 07:22:22 76° 258° (WSW) 07:27:29 437.568
GOMX 1 21 Jan 07:19:50 07:22:17 15° 293° (WNW) 07:24:39 467.674
HO-68 21 Jan 07:24:52 07:31:12 33° 98° (E) 07:37:28 435.675
CUTE-I 21 Jan 07:32:45 07:37:40 39° 289° (WNW) 07:42:36 437.470
CANX-2 21 Jan 07:36:08 07:40:10 38° 98° (E) 07:44:09 2200.000
CINEMA 3 21 Jan 07:37:29 07:41:40 65° 100° (E) 07:46:00 145.822/145.860
SEEDS 21 Jan 07:45:39 07:49:17 27° 96° (E) 07:52:51 437.485
COMPASS 1 21 Jan 07:49:51 07:52:51 19° 94° (E) 07:55:49 437.405
DOVE 4 21 Jan 07:54:09 07:56:39 16° 292° (WNW) 07:59:09 437.250
O/OREOS (USA 219) 21 Jan 07:58:38 07:59:20 10° 303° (WNW) 08:00:02 437.305
GONETS M04 21 Jan 07:59:16 08:08:01 68° 268° (W) 08:16:44
AAUSAT CUBESAT 2 21 Jan 08:00:14 08:03:12 19° 95° (E) 08:06:08 437.432
Cosmos 2499 21 Jan 08:12:02 08:18:26 38° 271° (W) 08:24:50 435.465 / 435.565
Cubesat XI-IV 21 Jan 08:17:44 08:20:49 16° 296° (WNW) 08:23:54 437.490
NOAA 15 21 Jan 08:24:11 08:26:28 13° 297° (WNW) 08:28:45 137.62
CUBEBUG 2 21 Jan 08:26:06 08:30:23 51° 100° (E) 08:34:47 437.445
PRISM 21 Jan 08:26:48 08:30:17 26° 71° (ENE) 08:33:46 437.425
NOAA 18 21 Jan 08:28:22 08:32:39 24° 294° (WNW) 08:36:56 137.9125
PCSat 21 Jan 08:39:21 08:40:09 10° 45° (NE) 08:40:57 145.827
CUTE 1.7 + AOD 2 21 Jan 08:42:27 08:46:26 38° 287° (WNW) 08:50:23 437.475
FUNcube-1 21 Jan 08:45:58 08:49:45 28° 97° (E) 08:53:35 145.935
SO-50 21 Jan 08:48:08 08:52:03 25° 307° (NW) 08:55:57 436.795
UWE-3 21 Jan 08:52:31 08:56:54 64° 101° (E) 09:01:23 435.000/436.395/437.385
UNISAT 6 21 Jan 09:07:59 09:11:15 22° 70° (ENE) 09:14:31 437.425
ZACube-1 21 Jan 09:09:09 09:13:31 58° 100° (E) 09:17:57 437.345
DELFI C3 21 Jan 09:09:57 09:11:46 13° 93° (E) 09:13:34 145.870
HO-68 21 Jan 09:12:17 09:18:53 41° 293° (WNW) 09:25:27 435.675
CANX-2 21 Jan 09:13:09 09:15:39 15° 292° (WNW) 09:18:09 2200.000
TIGRISAT 21 Jan 09:20:36 09:24:14 28° 71° (ENE) 09:27:52 435.000
SEEDS 21 Jan 09:21:36 09:24:46 21° 290° (WNW) 09:27:55 437.485
RS-15 21 Jan 09:24:43 09:37:05 88° 244° (WSW) 09:48:53 29.354- 29.394
COMPASS 1 21 Jan 09:24:45 09:28:22 28° 288° (WNW) 09:31:56 437.405
JAS-2 21 Jan 09:26:41 09:29:20 14° 60° (ENE) 09:32:05 435.910
AAUSAT CUBESAT 2 21 Jan 09:35:03 09:38:38 28° 288° (WNW) 09:42:10 437.432
ANTELSAT 21 Jan 09:35:36 09:39:39 45° 74° (ENE) 09:43:44 437.575/2403.000
Oscar 11 21 Jan 09:43:52 09:48:12 66° 284° (WNW) 09:52:31 145.826/435.025
PRISM 21 Jan 10:02:24 10:05:30 20° 264° (W) 10:08:37 437.425
CUBEBUG 2 21 Jan 10:04:44 10:06:34 12° 293° (WNW) 10:08:26 437.445
PCSat 21 Jan 10:19:00 10:24:27 75° 63° (ENE) 10:29:51 145.827
FUNcube-1 21 Jan 10:22:24 10:25:48 22° 290° (WNW) 10:29:16 145.935
QB50P1 21 Jan 10:24:27 10:26:36 14° 67° (ENE) 10:28:43 145.935-145.965
POLYITAN 1 21 Jan 10:28:33 10:31:03 16° 68° (ENE) 10:33:32 437.675
QB50P2 21 Jan 10:29:32 10:32:18 17° 69° (ENE) 10:35:04 145.880/145.840
UWE-3 21 Jan 10:32:31 10:32:49 10° 294° (WNW) 10:33:06 435.000/436.395/437.385
